Regional Weather Roundup
Issued by NWS Wakefield, VA

Home | Current Version | Previous Version | Text Only | Print | Product List | Glossary On
Versions: 1 2 3 4 5 6 7 8 9 10 11 12 13 14 15 16 17 18 19 20 21 22 23 24 25 26 27
000
ASUS41 KAKQ 170816
RWRAKQ

REGIONAL WEATHER ROUNDUP
NATIONAL WEATHER SERVICE WAKEFIELD VA
400 AM EDT TUE OCT 17 2017

Note: "fair" indicates few or no clouds below 12,000 feet with no
significant weather and/or obstructions to visibility. * = Denotes
station may not report precipitation (e.g., rain,snow,etc.),
thunder or fog.

VAZ042-051-052>054-056-170900-
NORTHERN VIRGINIA

CITY           SKY/WX    TMP DP  RH WIND       PRES   REMARKS
WASH NATIONAL  CLEAR     49  38  65 N9        30.30R
DULLES         CLEAR     46  36  68 N7        30.29R
FORT BELVOIR   NOT AVBL
QUANTICO       PTCLDY    47  38  71 N7        30.30R
FREDERICKSBRG* CLEAR     45  40  83 NW3       30.28R
STAFFORD*      PTCLDY    37  37 100 CALM      30.33S
WARRENTON      PTCLDY    39  33  78 CALM      30.29R
CULPEPER*      CLEAR     40  36  83 CALM      30.30S
MANASSAS*      CLEAR     38  37  97 CALM      30.30R
LEESBURG*      CLEAR     43  37  81 NW6       30.30S
WINCHESTER     CLEAR     37  34  87 NW5       30.30S
FRONT ROYAL*   SUNNY     37  36  93 CALM      30.29S
LURAY*         SUNNY     39  37  93 CALM      30.29S
$$

VAZ048-049-060>072-079>083-170900-
CENTRAL AND SOUTH CENTRAL VIRGINIA

CITY           SKY/WX    TMP DP  RH WIND       PRES   REMARKS
RICHMOND       CLEAR     46  39  76 N10       30.26R
CHESTERFIELD*  NOT AVBL
PETERSBURG*    CLEAR     46  37  72 N6        30.26S
HANOVER        CLEAR     46  38  73 VRB5      30.28R
TAPPAHANNOCK*  CLEAR     49  33  54 NE3       30.26S
QUINTON*       FAIR      45  39  81 NW3       30.25S
CHARLOTTSVILLE CLEAR     43  39  86 S3        30.28S
GORDONSVILLE*  SUNNY     39  39 100 CALM      30.28S
ORANGE*        CLEAR     45  36  70 N5        30.28S
LOUISA*        CLEAR     37  36  93 N3        30.28S
BUMPASS*       FAIR      49  37  61 N3        30.28R
FARMVILLE*     CLEAR     47  41  79 N5        30.27S
CREWE*         FAIR      45  41  88 N5        30.26F
FORT PICKETT*  FAIR      45  41  85 N8        30.25S
CHASE CITY*    FAIR      46  39  78 N3        30.26S
CLARKSVILLE*   FAIR      48  41  76 N5        30.26S
SOUTH HILL*    CLEAR     43  41  91 N5        30.31S
LAWRENCEVILLE* FAIR      45  39  77 N5        30.25S
EMPORIA*       CLEAR     43  37  81 NW5       30.26S
$$

VAZ088>098-170900-
SOUTHEAST VIRGINIA

CITY           SKY/WX    TMP DP  RH WIND       PRES   REMARKS
NORFOLK        CLEAR     59  42  53 NE22G28   30.20R
VIRGINIA BEACH PTCLDY    56  38  50 NE13      30.19R
NORFOLK NAVAL  MOCLDY    58  46  64 N17G23    30.22
WEST POINT*    PTCLDY    46  41  81 CALM      30.26S
SALUDA*        FAIR      53  44  72 N10G16    30.23S
NEWPORT NEWS   CLEAR     51  41  68 N6        30.22S
LANGLEY AFB    NOT AVBL
FORT EUSTIS    CLEAR     52  41  66 N10       30.20S
WILLIAMSBURG*  CLEAR     48  45  87 N5        30.24S
HR EXEC AP*    NOT AVBL
FRANKLIN*      CLEAR     45  40  82 NW5       30.23S
US460-WAKEFLD  CLEAR     48  40  73 N6        30.23S
$$

VAZ020-022-025-037-045-170900-
WEST CENTRAL AND SOUTHWEST VIRGINIA

CITY           SKY/WX    TMP DP  RH WIND       PRES   REMARKS
STAUNTON*      CLEAR     35  34  96 CALM      30.30S
WAYNESBORO*    SUNNY     37  36  99 CALM      30.29S
HOT SPRINGS VA CLEAR     37  36  97 CALM      30.26F
LYNCHBURG      CLEAR     40  39  97 CALM      30.28S
DANVILLE       CLEAR     47  40  76 N3        30.27S
SOUTH BOSTON*  FAIR      39  38  95 CALM      30.28R
MARTINSVILLE   CLEAR     37  36  96 CALM      30.31S
ROANOKE        CLEAR     41  39  93 CALM      30.31S
BLACKSBURG     CLEAR     38  37  99 NW3       30.32S
DUBLIN*        CLEAR     39  37  91 W3        30.31S
MARION*        CLEAR     36  33  90 CALM      30.32F
HILLSVILLE*    CLEAR     40  32  73 CALM      30.27S
RICHLANDS*     FAIR      38  36  93 CALM      30.30F
WISE*          CLEAR     41  37  87 CALM      30.31F
ABINGDON*      CLEAR     40  38  93 CALM      30.30F
$$

MDZ021>025-VAZ099-100-170900-
SOUTHERN MARYLAND AND THE DELMARVA PENINSULA

CITY           SKY/WX    TMP DP  RH WIND       PRES   REMARKS
PATUXENT RIVER CLEAR     51  39  63 NE16      30.26R
BAY BRIDGE APT CLEAR     50  39  66 NE7       30.28R
LEONARDTOWN    NOT AVBL
DOVER          CLEAR     43  36  75 N13       30.26R
GEORGETOWN     CLEAR     47  40  76 N3        30.25S
EASTON         CLEAR     46  38  74 NE7       30.31R
CAMBRIDGE      CLEAR     48  39  71 NE5G13    30.26S
SALISBURY      CLEAR     44  40  85 N6        30.24S
OCEAN CITY     CLEAR     50  40  68 N14       30.24R
WALLOPS ISLAND CLEAR     47  42  83 N10       30.24R
ACCOMACK*      CLEAR     48  41  77 NE8       30.23R
$$

NCZ012>017-030>032-170900-
NORTH CENTRAL AND EASTERN NORTH CAROLINA

CITY           SKY/WX    TMP DP  RH WIND       PRES   REMARKS
ROANOKE RAPIDS FAIR      45  41  87 N3        30.24S
RALEIGH        CLEAR     49  42  77 N5        30.25S
ELIZABETH CITY CLEAR     55  47  74 N10       30.19S
AHOSKIE*       CLEAR     46  40  77 N5        30.22F
EDENTON*       CLEAR     49  45  88 CALM      30.20S
CURRITUCK*     CLEAR     59  40  49 N16G24    30.19S HAZE
KILL DEVIL HLS PTCLDY    60  41  49 N14G21    30.14F
MANTEO         PTCLDY   N/A N/A N/A NE15G31   30.16S
CAPE HATTERAS  MOCLDY    63  49  60 NE17G29   30.13R
TARBORO*       NOT AVBL
GOLDSBORO      PTCLDY    50  43  76 N10       30.20S
WASHINGTON     CLOUDY    49  43  82 N7        30.20S
GREENVILLE     CLOUDY    46  43  87 N6        30.22S
NEW BERN       CLOUDY    53  46  77 N9        30.19S
WILMINGTON     CLOUDY    54  44  69 N10       30.16F
$$

VAZ048-170900-
ELSEWHERE

CITY           SKY/WX    TMP DP  RH WIND       PRES   REMARKS
HARRISBURG PA  CLEAR     41  35  79 N5        30.28S
BALTIMORE      CLEAR     41  38  89 CALM      30.29R
ANNAPOLIS      CLEAR     52  44  74 N8        30.28R
ANDREWS AFB    CLEAR     42  36  79 N8        30.27R
PHILADELPHIA   CLEAR     44  33  65 NW9       30.28S
HENDERSON NC   CLEAR     44  38  82 N5        30.26S
GREENSBORO     CLEAR     46  40  79 NE5       30.26S
ROCKY MOUNT    CLEAR     49  43  80 N8        30.23F
$$

VAZ100-170900-
MARINE

STATION/POSITION TIME  TEMP    WIND        PRES    WAVE   SWELL
                       AIR SEA DIR/SP/G            HT/PER HT/PER
                 (UTC) (F)     (DEG/KT/KT) (MB)    (FT/S) (FT/S)
BRANDYWINE LGT   0742   51      20/ 23/ 27 1024.3R
CAPE MAY NJ      0742   48 66   20/  5/ 14 1023.6S
LEWES DE         0742   52 61   20/ 20/ 27 1023.9F
15NM E FENWICK I 0750   54 68  360/ 23/ 29 1023.0S   7/ 6   2/ 9
OCEAN-CITY-INLET 0742   52 66   30/ 11/ 16 1024.0R
WACHAPREAGUE VA  0742   50 65   10/  6/ 10 1023.4R
THOMAS POINT MD  0800   52 69   50/ 16/ 18   N/A
COVE POINT MD    0742   52      50/ 16/ 21 1025.1R
SOLOMONS ISLAND  0742   53 70   40/  9/ 11 1024.2R
BISHOPS HEAD MD  0742   52 64   20/ 12/ 18 1024.2S
PINEY POINT MD   0742           30/  8/  9   N/A
CAMBRIDGE MD     0742   50 67              1025.3R
LEWISETTA VA     0742   56 66   40/ 11/ 16 1023.9S
RAPPAHANNOCK LGT 0742           40/ 21/ 24 1023.6S
YORK RVR RNG VA  0742   58      10/ 18/ 21 1023.3R
YORKTOWN VA      0742   54 71  350/ 13/ 16 1023.1S
DOMINION TERM VA 0742   55      10/  8/ 11 1023.3R
KIPTOPEKE VA     0742      70   40/  6/ 10   N/A
CAPE HENRY VA    0742   59      20/ 22/ 25   N/A
WILLOUBY STN VA  0742   57     350/ 14/ 17 1022.8R
S CRANEY ISL VA  0742   58     360/ 14/ 18 1022.5R
CAPE HENRY BUOY  0730      71                N/A     6/ 6   2/11
CAPE CHARLES BUO 0751      71                N/A     5/ 6
64NM E OF VA BCH 0750   62 68   20/ 23/ 29 1020.7R   9/ 7   3/12
DUCK PIER NC     0742   62 70   20/ 23/ 30 1020.6F
44100 DUCK FRF   0705      71                N/A     9/ 7   2/11
44056 DUCK FRF   0730      72                N/A     8/ 7   2/11
OREGON INLET NC  0742   62 70   20/ 19/ 25 1020.5F
HATTERAS NC      0742   63 72   40/ 18/ 25 1019.9R
DIAMOND SHLS NC  0750   66 81   20/ 27/ 33 1018.5F   8/ 8   2/11
CAPE LOOKOUT NC  0800   62      20/ 19/ 24 1019.6F
$$




USA.gov is the U.S. government's official web portal to all federal, state and local government web resources and services.